Precipitable_Water
0.40 0.30 0.27 0.21 0.21 0.27 0.32 0.36 0.37 0.39 0.43 0.47 0.49 0.48 0.46 0.47 0.49 0.59 0.65 0.74 0.80 0.77 0.76 0.78 0.83 0.86 0.92 0.97 1.07 1.18 1.26 1.23 1.23 1.26 1.29 1.29 1.25 1.22 1.21 1.17 1.17 1.15 1.12 1.21 1.26 1.27 1.30 1.33 1.36 1.39 1.42 1.42 1.44 1.43 1.44 1.44 1.44 1.44 1.41 1.41 1.35 1.38 1.39 1.33 1.29 1.28 1.23 1.17 1.19 1.23 1.21 1.16 1.25 1.30 1.35 1.34 1.37 1.42 1.46 1.49 1.50 1.49 1.47 1.43 1.38 1.36
0.41 0.29 0.25 0.24 0.27 0.30 0.32 0.37 0.39 0.37 0.40 0.43 0.44 0.44 0.44 0.47 0.44 0.55 0.61 0.71 0.79 0.71 0.70 0.77 0.81 0.85 0.92 0.95 1.02 1.14 1.18 1.15 1.19 1.22 1.22 1.25 1.28 1.25 1.22 1.18 1.16 1.17 1.23 1.25 1.24 1.25 1.27 1.30 1.33 1.36 1.38 1.39 1.34 1.37 1.40 1.38 1.39 1.40 1.43 1.40 1.40 1.41 1.39 1.34 1.30 1.28 1.23 1.19 1.14 1.12 1.15 1.18 1.23 1.27 1.28 1.27 1.34 1.39 1.45 1.50 1.51 1.49 1.45 1.42 1.39 1.35
0.31 0.24 0.22 0.29 0.34 0.36 0.35 0.34 0.37 0.35 0.34 0.39 0.41 0.41 0.41 0.43 0.47 0.59 0.63 0.69 0.74 0.69 0.66 0.74 0.73 0.79 0.88 0.95 1.01 1.06 1.10 1.14 1.20 1.21 1.21 1.21 1.24 1.26 1.25 1.23 1.20 1.21 1.19 1.22 1.22 1.23 1.23 1.26 1.29 1.31 1.33 1.35 1.33 1.34 1.36 1.41 1.41 1.38 1.39 1.41 1.43 1.41 1.38 1.35 1.33 1.33 1.24 1.23 1.24 1.20 1.21 1.22 1.23 1.35 1.37 1.35 1.40 1.44 1.43 1.48 1.51 1.49 1.46 1.42 1.39 1.37
0.24 0.22 0.26 0.35 0.38 0.36 0.33 0.31 0.31 0.32 0.33 0.34 0.37 0.38 0.34 0.38 0.43 0.41 0.55 0.63 0.68 0.68 0.64 0.68 0.67 0.75 0.87 0.95 0.98 1.05 1.09 1.10 1.15 1.19 1.22 1.23 1.21 1.23 1.23 1.24 1.25 1.23 1.19 1.17 1.21 1.23 1.24 1.24 1.25 1.28 1.27 1.28 1.31 1.32 1.37 1.41 1.39 1.39 1.36 1.36 1.39 1.40 1.40 1.38 1.35 1.34 1.34 1.29 1.29 1.29 1.29 1.31 1.31 1.27 1.35 1.38 1.44 1.44 1.43 1.40 1.47 1.49 1.46 1.42 1.38 1.37
0.22 0.26 0.32 0.37 0.38 0.35 0.32 0.31 0.27 0.26 0.26 0.31 0.34 0.36 0.34 0.36 0.43 0.46 0.51 0.61 0.63 0.62 0.67 0.68 0.68 0.74 0.85 0.85 0.90 1.00 1.09 1.08 1.11 1.17 1.20 1.23 1.23 1.25 1.29 1.29 1.29 1.25 1.21 1.18 1.21 1.26 1.26 1.23 1.21 1.22 1.25 1.29 1.26 1.26 1.28 1.33 1.35 1.33 1.30 1.31 1.33 1.36 1.37 1.37 1.37 1.36 1.38 1.36 1.31 1.33 1.35 1.39 1.38 1.42 1.36 1.31 1.31 1.36 1.36 1.37 1.38 1.40 1.45 1.43 1.39 1.37
0.30 0.35 0.39 0.31 0.33 0.35 0.35 0.32 0.28 0.24 0.21 0.24 0.31 0.33 0.34 0.36 0.43 0.50 0.53 0.55 0.52 0.48 0.56 0.62 0.57 0.62 0.78 0.81 0.80 0.90 0.99 1.01 1.10 1.10 1.12 1.16 1.21 1.25 1.26 1.26 1.31 1.31 1.28 1.21 1.19 1.21 1.24 1.24 1.24 1.25 1.27 1.26 1.24 1.23 1.26 1.30 1.32 1.32 1.31 1.32 1.33 1.35 1.36 1.34 1.36 1.37 1.37 1.31 1.22 1.19 1.17 1.15 1.16 1.13 1.14 1.10 1.11 1.19 1.22 1.23 1.35 1.41 1.43 1.42 1.40 1.38
0.32 0.37 0.39 0.37 0.31 0.33 0.34 0.32 0.32 0.28 0.21 0.19 0.20 0.31 0.34 0.37 0.43 0.50 0.50 0.52 0.43 0.38 0.52 0.65 0.52 0.52 0.69 0.71 0.76 0.83 0.89 0.94 1.05 1.05 1.06 1.10 1.14 1.19 1.21 1.26 1.30 1.30 1.29 1.30 1.26 1.25 1.27 1.29 1.28 1.23 1.22 1.23 1.21 1.20 1.27 1.31 1.31 1.33 1.33 1.31 1.31 1.30 1.31 1.35 1.36 1.36 1.36 1.30 1.25 1.15 1.07 1.06 1.05 1.03 1.06 1.13 1.19 1.20 1.23 1.29 1.28 1.32 1.39 1.40 1.36 1.36
0.40 0.37 0.37 0.39 0.38 0.32 0.32 0.31 0.35 0.33 0.24 0.18 0.20 0.26 0.34 0.35 0.40 0.46 0.50 0.51 0.45 0.48 0.54 0.65 0.58 0.49 0.53 0.63 0.74 0.81 0.83 0.88 0.92 0.97 1.00 1.03 1.07 1.10 1.14 1.18 1.24 1.28 1.27 1.25 1.25 1.24 1.26 1.28 1.27 1.23 1.22 1.21 1.20 1.23 1.26 1.27 1.30 1.30 1.30 1.30 1.29 1.32 1.32 1.32 1.34 1.33 1.32 1.24 1.21 1.15 1.10 1.08 1.07 1.04 1.02 1.08 1.14 1.22 1.24 1.23 1.23 1.27 1.32 1.37 1.38 1.35
0.44 0.38 0.37 0.36 0.37 0.36 0.31 0.31 0.34 0.36 0.27 0.22 0.28 0.26 0.26 0.31 0.39 0.47 0.51 0.49 0.48 0.44 0.40 0.53 0.64 0.49 0.47 0.58 0.70 0.76 0.74 0.80 0.83 0.88 0.93 0.98 1.02 1.03 1.07 1.12 1.19 1.25 1.26 1.27 1.24 1.23 1.25 1.26 1.29 1.31 1.25 1.22 1.24 1.25 1.23 1.23 1.26 1.28 1.30 1.30 1.30 1.29 1.30 1.31 1.32 1.29 1.29 1.26 1.21 1.15 1.10 1.05 1.08 1.10 1.09 1.13 1.16 1.16 1.19 1.16 1.21 1.22 1.26 1.33 1.36 1.37
0.48 0.47 0.45 0.43 0.38 0.33 0.36 0.39 0.42 0.41 0.31 0.31 0.34 0.35 0.30 0.25 0.31 0.45 0.48 0.47 0.46 0.41 0.33 0.41 0.55 0.45 0.44 0.54 0.60 0.70 0.69 0.70 0.76 0.82 0.88 0.95 0.98 1.01 1.02 1.07 1.14 1.21 1.27 1.30 1.28 1.26 1.26 1.26 1.29 1.34 1.33 1.26 1.22 1.23 1.26 1.28 1.30 1.30 1.31 1.30 1.30 1.28 1.30 1.31 1.30 1.28 1.25 1.25 1.24 1.17 1.11 1.03 1.03 1.09 1.12 1.13 1.08 1.08 1.14 1.10 1.15 1.19 1.22 1.26 1.30 1.32
0.53 0.58 0.59 0.51 0.38 0.40 0.43 0.44 0.46 0.46 0.42 0.40 0.36 0.34 0.33 0.31 0.27 0.36 0.42 0.43 0.41 0.33 0.33 0.40 0.46 0.48 0.37 0.46 0.53 0.58 0.62 0.68 0.73 0.78 0.85 0.92 0.96 1.00 1.02 1.04 1.10 1.15 1.21 1.25 1.29 1.29 1.26 1.28 1.29 1.35 1.35 1.30 1.26 1.25 1.25 1.26 1.28 1.30 1.30 1.29 1.26 1.26 1.29 1.30 1.28 1.26 1.22 1.22 1.21 1.15 1.11 1.05 1.00 1.02 1.05 1.03 1.04 1.08 1.09 1.06 1.10 1.14 1.15 1.20 1.22 1.27
0.53 0.54 0.52 0.50 0.50 0.47 0.49 0.45 0.47 0.50 0.47 0.42 0.35 0.30 0.32 0.30 0.30 0.33 0.37 0.42 0.33 0.29 0.35 0.39 0.40 0.44 0.35 0.41 0.54 0.61 0.64 0.66 0.68 0.70 0.77 0.84 0.92 0.97 1.02 1.04 1.07 1.10 1.15 1.20 1.25 1.27 1.30 1.32 1.31 1.33 1.33 1.31 1.28 1.27 1.24 1.23 1.25 1.27 1.29 1.29 1.25 1.27 1.28 1.27 1.28 1.27 1.23 1.20 1.17 1.14 1.11 1.06 1.02 1.00 0.99 0.96 0.95 1.00 1.00 0.99 0.99 1.09 1.16 1.17 1.21 1.24
0.44 0.46 0.52 0.54 0.56 0.49 0.44 0.39 0.40 0.43 0.44 0.40 0.36 0.33 0.28 0.23 0.24 0.21 0.29 0.29 0.30 0.30 0.35 0.37 0.37 0.33 0.36 0.45 0.54 0.59 0.61 0.65 0.70 0.73 0.75 0.79 0.87 0.95 1.00 1.02 1.06 1.09 1.13 1.18 1.21 1.25 1.28 1.27 1.26 1.25 1.30 1.33 1.29 1.26 1.23 1.20 1.21 1.23 1.25 1.26 1.23 1.22 1.25 1.25 1.26 1.24 1.22 1.19 1.15 1.13 1.10 1.06 1.06 1.01 0.98 0.96 0.94 0.98 0.97 0.98 0.98 1.02 1.05 1.13 1.14 1.17
0.36 0.46 0.50 0.51 0.51 0.53 0.47 0.35 0.31 0.32 0.36 0.37 0.32 0.30 0.27 0.22 0.20 0.16 0.22 0.28 0.30 0.34 0.38 0.33 0.34 0.26 0.30 0.39 0.54 0.57 0.59 0.64 0.70 0.75 0.79 0.82 0.87 0.93 0.99 1.03 1.06 1.10 1.14 1.17 1.20 1.23 1.24 1.25 1.25 1.24 1.26 1.30 1.30 1.27 1.24 1.20 1.18 1.20 1.21 1.23 1.21 1.19 1.23 1.23 1.23 1.20 1.19 1.17 1.14 1.13 1.09 1.06 1.05 1.01 0.98 0.97 0.94 0.95 0.97 0.99 0.96 0.95 0.99 1.04 1.06 1.09
0.22 0.28 0.39 0.44 0.40 0.48 0.46 0.40 0.33 0.30 0.33 0.34 0.35 0.32 0.28 0.25 0.19 0.15 0.19 0.21 0.23 0.25 0.30 0.32 0.25 0.22 0.22 0.24 0.38 0.49 0.59 0.66 0.70 0.74 0.80 0.83 0.88 0.93 0.97 1.00 1.03 1.07 1.13 1.18 1.21 1.22 1.22 1.24 1.25 1.23 1.24 1.27 1.29 1.27 1.26 1.23 1.20 1.18 1.17 1.18 1.17 1.18 1.21 1.21 1.19 1.19 1.16 1.14 1.15 1.14 1.12 1.08 1.05 1.02 0.99 0.98 0.98 0.96 0.95 0.98 0.97 0.95 1.00 1.01 1.06 1.08
0.28 0.24 0.33 0.48 0.49 0.50 0.42 0.42 0.38 0.32 0.32 0.35 0.35 0.32 0.28 0.24 0.28 0.19 0.19 0.20 0.20 0.22 0.22 0.25 0.22 0.25 0.25 0.31 0.34 0.36 0.48 0.59 0.60 0.62 0.71 0.77 0.82 0.90 0.94 0.96 0.97 1.03 1.10 1.17 1.19 1.21 1.22 1.24 1.25 1.26 1.25 1.25 1.28 1.28 1.28 1.28 1.26 1.22 1.17 1.15 1.14 1.14 1.17 1.19 1.19 1.18 1.15 1.14 1.15 1.14 1.11 1.09 1.06 1.03 1.02 1.01 1.04 1.04 1.01 0.98 0.97 0.95 0.97 1.02 1.07 1.11
0.30 0.24 0.32 0.41 0.50 0.48 0.44 0.43 0.37 0.35 0.24 0.30 0.34 0.25 0.23 0.30 0.31 0.26 0.22 0.19 0.18 0.16 0.16 0.23 0.23 0.24 0.28 0.29 0.32 0.33 0.36 0.41 0.44 0.49 0.60 0.68 0.74 0.80 0.88 0.90 0.92 0.99 1.05 1.11 1.15 1.18 1.21 1.24 1.25 1.26 1.24 1.23 1.26 1.29 1.29 1.29 1.30 1.26 1.23 1.17 1.14 1.16 1.20 1.19 1.18 1.15 1.15 1.15 1.14 1.14 1.13 1.12 1.09 1.05 1.00 0.97 0.97 1.00 1.04 1.02 0.99 0.96 0.98 1.05 1.09 1.11
0.29 0.25 0.33 0.33 0.35 0.44 0.49 0.45 0.41 0.37 0.35 0.36 0.28 0.27 0.31 0.33 0.33 0.28 0.19 0.18 0.14 0.12 0.12 0.19 0.19 0.21 0.21 0.18 0.27 0.27 0.28 0.33 0.36 0.39 0.51 0.60 0.68 0.72 0.76 0.83 0.86 0.93 0.99 1.05 1.10 1.16 1.19 1.19 1.20 1.25 1.27 1.25 1.25 1.28 1.31 1.29 1.31 1.30 1.27 1.20 1.13 1.15 1.15 1.18 1.19 1.17 1.15 1.14 1.13 1.13 1.13 1.13 1.10 1.06 1.02 1.00 0.97 0.99 1.00 1.01 1.00 0.99 1.00 1.02 1.07 1.11
0.37 0.22 0.26 0.30 0.32 0.36 0.45 0.46 0.40 0.40 0.38 0.32 0.30 0.36 0.28 0.22 0.21 0.26 0.24 0.15 0.13 0.12 0.12 0.13 0.15 0.18 0.19 0.17 0.21 0.24 0.23 0.26 0.30 0.36 0.46 0.53 0.61 0.66 0.70 0.76 0.84 0.91 0.96 1.00 1.07 1.15 1.19 1.19 1.19 1.22 1.23 1.26 1.27 1.30 1.29 1.26 1.29 1.31 1.31 1.26 1.19 1.13 1.15 1.18 1.22 1.23 1.22 1.20 1.15 1.14 1.13 1.11 1.10 1.10 1.06 1.04 1.02 1.01 0.98 0.96 0.97 0.96 0.95 1.02 1.08 1.10
0.41 0.26 0.24 0.30 0.30 0.35 0.39 0.41 0.32 0.32 0.36 0.36 0.37 0.35 0.36 0.28 0.22 0.21 0.19 0.20 0.17 0.13 0.11 0.12 0.14 0.11 0.14 0.14 0.16 0.17 0.24 0.25 0.28 0.30 0.41 0.51 0.56 0.62 0.66 0.72 0.79 0.87 0.94 0.99 1.06 1.11 1.14 1.17 1.20 1.21 1.21 1.22 1.24 1.26 1.29 1.29 1.30 1.28 1.28 1.26 1.23 1.22 1.23 1.25 1.26 1.27 1.23 1.21 1.17 1.15 1.17 1.16 1.14 1.12 1.09 1.07 1.04 1.00 0.96 0.95 0.95 0.95 0.95 0.96 1.02 1.04
0.39 0.43 0.22 0.27 0.36 0.39 0.33 0.37 0.32 0.31 0.29 0.30 0.30 0.29 0.31 0.29 0.30 0.27 0.24 0.20 0.17 0.15 0.13 0.11 0.10 0.11 0.13 0.14 0.13 0.12 0.14 0.15 0.18 0.23 0.33 0.47 0.56 0.60 0.63 0.67 0.76 0.84 0.91 0.99 1.05 1.09 1.12 1.16 1.20 1.25 1.23 1.22 1.24 1.27 1.29 1.30 1.25 1.23 1.26 1.24 1.23 1.20 1.22 1.23 1.26 1.27 1.23 1.22 1.18 1.15 1.12 1.10 1.11 1.10 1.12 1.13 1.13 1.06 1.00 0.99 0.98 0.96 0.94 0.98 0.99 1.03
0.38 0.37 0.25 0.27 0.29 0.31 0.36 0.38 0.36 0.35 0.35 0.32 0.28 0.26 0.28 0.27 0.24 0.21 0.19 0.22 0.20 0.18 0.16 0.14 0.11 0.15 0.17 0.20 0.21 0.21 0.23 0.22 0.20 0.17 0.24 0.43 0.52 0.54 0.58 0.63 0.73 0.81 0.89 0.97 1.03 1.06 1.09 1.13 1.19 1.24 1.25 1.24 1.25 1.26 1.27 1.29 1.28 1.25 1.22 1.22 1.25 1.26 1.25 1.22 1.25 1.28 1.28 1.26 1.21 1.15 1.11 1.10 1.12 1.12 1.13 1.12 1.12 1.09 1.06 1.04 1.01 1.00 1.02 0.99 0.99 1.04
0.45 0.42 0.34 0.26 0.29 0.31 0.35 0.39 0.41 0.41 0.40 0.38 0.34 0.28 0.30 0.29 0.27 0.21 0.16 0.17 0.18 0.17 0.19 0.20 0.16 0.16 0.25 0.32 0.31 0.29 0.28 0.26 0.25 0.24 0.25 0.36 0.42 0.46 0.54 0.63 0.73 0.79 0.84 0.93 1.01 1.04 1.06 1.10 1.17 1.22 1.21 1.19 1.20 1.23 1.26 1.28 1.27 1.23 1.21 1.24 1.26 1.24 1.23 1.24 1.23 1.26 1.28 1.26 1.23 1.18 1.16 1.15 1.13 1.13 1.11 1.09 1.10 1.08 1.07 1.07 1.05 1.08 1.05 1.01 1.01 1.05
0.51 0.41 0.31 0.29 0.36 0.37 0.40 0.42 0.44 0.43 0.42 0.38 0.37 0.35 0.31 0.27 0.25 0.22 0.20 0.21 0.17 0.15 0.14 0.15 0.14 0.17 0.28 0.33 0.35 0.34 0.31 0.29 0.28 0.26 0.26 0.35 0.42 0.43 0.49 0.60 0.67 0.73 0.81 0.90 0.97 1.00 1.03 1.11 1.19 1.21 1.19 1.19 1.21 1.23 1.23 1.25 1.27 1.24 1.23 1.24 1.25 1.22 1.23 1.26 1.27 1.28 1.28 1.26 1.24 1.23 1.21 1.17 1.14 1.12 1.10 1.08 1.08 1.06 1.07 1.08 1.08 1.09 1.07 1.07 1.07 1.05
0.41 0.41 0.34 0.26 0.28 0.28 0.32 0.37 0.37 0.42 0.42 0.38 0.35 0.35 0.32 0.30 0.28 0.27 0.27 0.26 0.19 0.17 0.14 0.13 0.12 0.14 0.28 0.33 0.35 0.35 0.35 0.32 0.29 0.28 0.30 0.32 0.37 0.44 0.52 0.59 0.64 0.67 0.76 0.86 0.91 0.95 1.03 1.11 1.14 1.14 1.15 1.16 1.18 1.19 1.21 1.23 1.24 1.22 1.21 1.24 1.23 1.23 1.25 1.27 1.30 1.28 1.27 1.25 1.22 1.23 1.21 1.17 1.16 1.12 1.09 1.07 1.08 1.07 1.08 1.09 1.09 1.10 1.06 1.07 1.08 1.08
0.45 0.39 0.33 0.25 0.24 0.22 0.22 0.24 0.27 0.32 0.36 0.38 0.38 0.36 0.33 0.31 0.28 0.26 0.23 0.23 0.18 0.19 0.18 0.14 0.13 0.20 0.28 0.30 0.32 0.33 0.33 0.32 0.31 0.31 0.33 0.34 0.38 0.45 0.54 0.61 0.63 0.66 0.70 0.78 0.85 0.96 1.02 1.07 1.09 1.11 1.14 1.16 1.19 1.19 1.20 1.24 1.24 1.20 1.19 1.21 1.25 1.26 1.27 1.28 1.30 1.28 1.25 1.23 1.20 1.18 1.16 1.15 1.14 1.10 1.08 1.07 1.07 1.08 1.10 1.10 1.10 1.08 1.08 1.07 1.05 1.08
0.43 0.42 0.37 0.35 0.33 0.30 0.33 0.37 0.46 0.50 0.45 0.38 0.35 0.35 0.34 0.34 0.33 0.30 0.28 0.23 0.19 0.20 0.18 0.17 0.14 0.19 0.24 0.27 0.32 0.32 0.32 0.29 0.29 0.32 0.34 0.38 0.43 0.46 0.52 0.60 0.64 0.66 0.69 0.74 0.82 0.92 1.01 1.02 1.02 1.05 1.11 1.13 1.16 1.19 1.19 1.22 1.25 1.21 1.17 1.21 1.26 1.29 1.30 1.30 1.28 1.24 1.21 1.20 1.18 1.15 1.13 1.12 1.10 1.09 1.08 1.07 1.07 1.09 1.11 1.12 1.13 1.13 1.09 1.09 1.07 1.07
0.45 0.39 0.39 0.38 0.39 0.38 0.40 0.40 0.48 0.49 0.43 0.42 0.39 0.35 0.37 0.35 0.33 0.30 0.27 0.22 0.24 0.21 0.17 0.20 0.18 0.20 0.23 0.28 0.33 0.34 0.34 0.34 0.33 0.32 0.34 0.41 0.47 0.49 0.50 0.54 0.61 0.66 0.71 0.77 0.82 0.87 0.89 0.92 0.95 1.01 1.07 1.11 1.15 1.19 1.21 1.23 1.25 1.23 1.20 1.21 1.25 1.30 1.33 1.35 1.36 1.33 1.28 1.24 1.21 1.18 1.13 1.11 1.10 1.09 1.09 1.10 1.11 1.12 1.13 1.15 1.16 1.16 1.15 1.15 1.12 1.10
0.45 0.39 0.39 0.37 0.38 0.39 0.41 0.44 0.49 0.47 0.46 0.43 0.44 0.37 0.36 0.36 0.33 0.28 0.27 0.27 0.27 0.21 0.18 0.21 0.21 0.22 0.24 0.29 0.36 0.38 0.37 0.37 0.35 0.33 0.37 0.38 0.49 0.51 0.50 0.51 0.56 0.61 0.71 0.76 0.80 0.84 0.84 0.83 0.88 0.96 1.02 1.09 1.13 1.16 1.21 1.24 1.27 1.29 1.30 1.32 1.32 1.32 1.31 1.37 1.39 1.38 1.38 1.37 1.32 1.27 1.25 1.24 1.21 1.17 1.15 1.15 1.15 1.14 1.15 1.17 1.18 1.19 1.19 1.18 1.15 1.14
0.48 0.42 0.41 0.39 0.38 0.40 0.42 0.50 0.53 0.50 0.49 0.45 0.39 0.37 0.37 0.36 0.34 0.31 0.28 0.29 0.27 0.25 0.25 0.26 0.24 0.22 0.26 0.29 0.34 0.37 0.45 0.46 0.43 0.44 0.44 0.42 0.44 0.51 0.49 0.47 0.52 0.61 0.71 0.75 0.77 0.77 0.78 0.80 0.87 0.94 1.01 1.09 1.12 1.15 1.18 1.22 1.27 1.30 1.29 1.29 1.32 1.33 1.37 1.40 1.39 1.39 1.41 1.41 1.40 1.41 1.41 1.39 1.34 1.28 1.24 1.22 1.18 1.17 1.18 1.19 1.19 1.20 1.20 1.19 1.18 1.15
0.49 0.40 0.44 0.39 0.37 0.38 0.45 0.53 0.54 0.55 0.51 0.42 0.40 0.38 0.38 0.37 0.35 0.33 0.31 0.29 0.30 0.28 0.28 0.28 0.28 0.24 0.28 0.37 0.40 0.46 0.49 0.50 0.49 0.45 0.42 0.43 0.44 0.46 0.50 0.50 0.51 0.60 0.71 0.76 0.77 0.77 0.79 0.83 0.90 0.96 1.03 1.07 1.11 1.13 1.14 1.16 1.22 1.29 1.32 1.33 1.35 1.37 1.44 1.47 1.44 1.46 1.46 1.47 1.53 1.53 1.53 1.50 1.46 1.42 1.35 1.31 1.28 1.25 1.22 1.20 1.21 1.21 1.21 1.21 1.20 1.17
0.51 0.43 0.44 0.39 0.36 0.37 0.44 0.49 0.51 0.53 0.49 0.43 0.40 0.38 0.38 0.38 0.34 0.33 0.31 0.32 0.30 0.28 0.28 0.29 0.29 0.29 0.36 0.39 0.48 0.52 0.52 0.51 0.47 0.45 0.46 0.46 0.46 0.47 0.48 0.49 0.51 0.57 0.68 0.74 0.77 0.80 0.82 0.86 0.91 0.96 1.02 1.08 1.12 1.16 1.17 1.17 1.19 1.23 1.24 1.29 1.33 1.40 1.49 1.52 1.52 1.50 1.53 1.57 1.59 1.60 1.57 1.56 1.54 1.49 1.44 1.41 1.37 1.34 1.30 1.27 1.24 1.21 1.21 1.20 1.18 1.18
0.49 0.45 0.39 0.37 0.36 0.38 0.43 0.49 0.51 0.51 0.44 0.38 0.41 0.50 0.50 0.41 0.41 0.37 0.35 0.43 0.46 0.42 0.31 0.27 0.29 0.40 0.42 0.42 0.44 0.52 0.53 0.52 0.51 0.49 0.46 0.49 0.52 0.49 0.47 0.49 0.53 0.57 0.64 0.71 0.77 0.80 0.82 0.86 0.92 0.97 1.02 1.08 1.14 1.17 1.18 1.19 1.18 1.18 1.22 1.25 1.31 1.39 1.40 1.44 1.48 1.51 1.52 1.57 1.59 1.59 1.60 1.60 1.58 1.57 1.54 1.51 1.47 1.44 1.42 1.36 1.29 1.24 1.22 1.18 1.18 1.18
0.51 0.47 0.41 0.42 0.36 0.39 0.43 0.48 0.53 0.47 0.36 0.38 0.59 0.65 0.60 0.50 0.47 0.49 0.55 0.58 0.56 0.54 0.50 0.45 0.39 0.48 0.48 0.46 0.48 0.58 0.62 0.67 0.66 0.67 0.64 0.54 0.54 0.58 0.60 0.61 0.63 0.67 0.70 0.75 0.80 0.84 0.90 0.96 1.00 1.05 1.09 1.13 1.18 1.19 1.23 1.26 1.20 1.21 1.28 1.33 1.38 1.37 1.38 1.40 1.46 1.51 1.53 1.57 1.58 1.59 1.61 1.61 1.60 1.59 1.60 1.61 1.58 1.54 1.48 1.43 1.35 1.28 1.25 1.23 1.22 1.19
0.48 0.47 0.43 0.43 0.39 0.39 0.44 0.48 0.45 0.38 0.42 0.57 0.70 0.71 0.70 0.70 0.64 0.58 0.56 0.54 0.55 0.56 0.55 0.49 0.48 0.51 0.60 0.64 0.66 0.74 0.78 0.85 0.85 0.84 0.84 0.84 0.79 0.73 0.73 0.76 0.79 0.79 0.83 0.87 0.92 0.96 0.99 1.01 1.05 1.09 1.15 1.20 1.23 1.27 1.31 1.33 1.33 1.34 1.37 1.40 1.40 1.45 1.46 1.46 1.48 1.51 1.54 1.54 1.57 1.58 1.58 1.59 1.60 1.60 1.64 1.67 1.66 1.62 1.55 1.49 1.44 1.38 1.31 1.26 1.21 1.17
0.48 0.46 0.45 0.40 0.42 0.44 0.44 0.43 0.36 0.41 0.57 0.66 0.68 0.72 0.72 0.67 0.66 0.58 0.50 0.68 0.69 0.66 0.68 0.61 0.59 0.74 0.79 0.81 0.81 0.83 0.77 0.82 0.88 0.94 0.97 0.99 1.00 0.90 0.86 0.90 0.95 0.97 0.99 1.05 1.05 1.09 1.11 1.13 1.14 1.15 1.17 1.23 1.29 1.35 1.39 1.41 1.46 1.43 1.40 1.45 1.45 1.49 1.52 1.53 1.52 1.51 1.55 1.54 1.56 1.56 1.58 1.58 1.59 1.62 1.65 1.66 1.67 1.64 1.60 1.57 1.54 1.46 1.40 1.31 1.26 1.24
0.52 0.50 0.47 0.38 0.42 0.38 0.39 0.41 0.44 0.58 0.58 0.60 0.59 0.63 0.64 0.60 0.62 0.60 0.47 0.58 0.74 0.76 0.77 0.74 0.75 0.84 0.90 0.91 0.87 0.84 0.79 0.76 0.76 0.91 1.06 1.06 1.06 1.07 1.03 1.04 1.09 1.13 1.17 1.23 1.27 1.28 1.32 1.33 1.31 1.29 1.29 1.31 1.36 1.40 1.42 1.46 1.50 1.50 1.49 1.47 1.48 1.51 1.53 1.54 1.51 1.51 1.53 1.55 1.59 1.62 1.64 1.64 1.62 1.62 1.64 1.67 1.65 1.61 1.62 1.62 1.62 1.62 1.59 1.45 1.31 1.24
0.56 0.47 0.47 0.40 0.38 0.42 0.39 0.41 0.45 0.46 0.41 0.52 0.68 0.75 0.77 0.80 0.83 0.78 0.74 0.60 0.79 0.82 0.88 0.84 0.83 0.83 0.86 1.00 0.93 0.81 0.70 0.63 0.67 0.84 1.08 1.14 1.14 1.07 1.09 1.16 1.21 1.22 1.26 1.31 1.37 1.41 1.41 1.42 1.43 1.47 1.47 1.42 1.43 1.48 1.49 1.47 1.52 1.55 1.54 1.50 1.50 1.50 1.49 1.48 1.46 1.50 1.53 1.54 1.60 1.64 1.68 1.69 1.68 1.65 1.65 1.64 1.61 1.61 1.65 1.70 1.72 1.71 1.72 1.59 1.44 1.30
0.54 0.53 0.48 0.42 0.39 0.40 0.39 0.38 0.42 0.43 0.49 0.66 0.68 0.75 0.81 0.85 0.87 0.81 0.65 0.52 0.83 0.90 0.94 0.96 0.89 0.91 0.90 0.88 0.91 0.82 0.63 0.61 0.73 0.92 1.12 1.18 1.17 1.14 1.07 1.10 1.17 1.23 1.26 1.28 1.28 1.30 1.35 1.38 1.36 1.31 1.26 1.19 1.15 1.26 1.38 1.41 1.44 1.45 1.48 1.52 1.50 1.47 1.42 1.39 1.39 1.42 1.45 1.51 1.60 1.64 1.68 1.70 1.71 1.69 1.67 1.64 1.64 1.67 1.67 1.68 1.70 1.74 1.78 1.73 1.67 1.52
0.48 0.47 0.46 0.40 0.38 0.38 0.39 0.41 0.41 0.54 0.52 0.67 0.74 0.77 0.84 0.90 0.87 0.70 0.42 0.53 0.87 0.98 1.02 1.00 0.94 0.92 0.91 0.95 0.94 0.81 0.72 0.65 0.82 1.00 1.22 1.23 1.19 1.15 1.08 1.07 1.08 1.11 1.16 1.24 1.29 1.33 1.33 1.36 1.31 1.26 1.23 1.20 1.22 1.32 1.32 1.33 1.32 1.28 1.31 1.38 1.41 1.37 1.34 1.33 1.35 1.39 1.42 1.45 1.50 1.58 1.64 1.67 1.66 1.67 1.68 1.67 1.70 1.72 1.71 1.76 1.77 1.76 1.75 1.74 1.73 1.67
0.44 0.45 0.46 0.38 0.38 0.39 0.39 0.41 0.50 0.55 0.70 0.76 0.76 0.82 0.88 0.97 0.83 0.53 0.45 0.80 1.01 1.04 1.07 1.07 1.04 1.02 1.00 0.95 0.95 0.82 1.01 1.07 1.14 1.25 1.30 1.29 1.21 1.16 1.18 1.18 1.19 1.20 1.17 1.18 1.21 1.28 1.29 1.34 1.32 1.28 1.29 1.33 1.32 1.32 1.31 1.28 1.22 1.17 1.18 1.18 1.15 1.18 1.25 1.29 1.34 1.36 1.35 1.37 1.39 1.44 1.53 1.61 1.63 1.63 1.66 1.70 1.72 1.76 1.75 1.76 1.76 1.78 1.78 1.75 1.76 1.73
0.43 0.43 0.46 0.45 0.38 0.38 0.39 0.41 0.46 0.54 0.70 0.81 0.86 0.89 0.92 0.78 0.57 0.59 0.88 1.12 1.12 1.08 1.12 1.12 1.07 1.08 1.06 1.03 1.06 1.09 1.17 1.25 1.30 1.31 1.28 1.24 1.23 1.21 1.21 1.21 1.19 1.21 1.24 1.26 1.25 1.20 1.20 1.15 1.17 1.15 1.18 1.24 1.27 1.28 1.29 1.28 1.22 1.20 1.17 1.13 1.11 1.17 1.26 1.26 1.25 1.21 1.22 1.26 1.29 1.32 1.38 1.46 1.55 1.62 1.65 1.70 1.73 1.72 1.71 1.76 1.79 1.79 1.78 1.78 1.75 1.70
0.46 0.43 0.42 0.44 0.45 0.44 0.48 0.45 0.43 0.39 0.63 0.84 0.88 0.89 0.93 0.69 0.80 1.00 1.06 1.08 1.13 1.11 1.12 1.11 1.11 1.11 1.13 1.07 1.15 1.19 1.23 1.25 1.25 1.26 1.25 1.22 1.17 1.15 1.17 1.19 1.17 1.15 1.13 1.14 1.16 1.19 1.13 1.01 1.01 0.99 1.01 1.06 1.06 1.07 1.09 1.11 1.11 1.17 1.22 1.14 1.14 1.22 1.24 1.23 1.23 1.20 1.16 1.16 1.19 1.23 1.26 1.32 1.41 1.49 1.58 1.62 1.67 1.67 1.67 1.74 1.74 1.75 1.77 1.75 1.72 1.69
0.53 0.45 0.42 0.47 0.53 0.42 0.47 0.44 0.45 0.59 0.74 0.88 0.90 0.77 0.90 0.96 1.07 1.11 1.09 1.02 1.12 1.12 1.12 1.09 1.12 1.17 1.18 1.15 1.13 1.16 1.20 1.22 1.23 1.25 1.25 1.22 1.18 1.15 1.13 1.13 1.15 1.16 1.17 1.20 1.24 1.25 1.24 1.15 1.13 1.09 1.09 1.09 1.08 1.07 1.07 0.99 0.96 1.01 1.05 1.10 1.27 1.29 1.25 1.21 1.19 1.17 1.11 1.08 1.11 1.16 1.20 1.24 1.30 1.37 1.43 1.49 1.56 1.61 1.62 1.66 1.71 1.74 1.73 1.73 1.69 1.65
0.55 0.51 0.55 0.45 0.57 0.54 0.51 0.58 0.66 0.73 0.80 0.88 0.93 0.98 0.98 1.00 1.04 1.08 1.07 1.06 1.07 1.11 1.18 1.10 1.08 1.15 1.20 1.19 1.17 1.15 1.12 1.15 1.18 1.20 1.15 1.13 1.11 1.11 1.09 1.10 1.07 1.05 1.03 1.03 1.06 1.15 1.17 1.16 1.14 1.14 1.12 1.12 1.09 1.10 1.08 1.07 0.96 0.92 0.91 1.07 1.20 1.22 1.23 1.22 1.19 1.15 1.09 1.07 1.07 1.10 1.16 1.23 1.28 1.33 1.39 1.44 1.48 1.47 1.54 1.61 1.68 1.67 1.72 1.73 1.70 1.66
0.58 0.59 0.61 0.60 0.57 0.65 0.69 0.69 0.71 0.70 0.79 0.88 0.95 1.00 0.98 0.97 1.01 1.06 1.01 0.98 1.09 1.07 1.13 1.11 1.10 1.10 1.10 1.14 1.13 1.13 1.13 1.13 1.12 1.13 1.12 1.12 1.09 1.07 1.08 1.07 1.06 1.05 1.04 1.01 1.00 1.03 1.04 1.05 1.06 1.04 1.02 1.05 1.09 1.06 1.06 1.04 1.00 0.91 0.97 1.08 1.12 1.15 1.18 1.19 1.16 1.11 1.09 1.10 1.11 1.13 1.20 1.22 1.27 1.32 1.38 1.45 1.50 1.50 1.52 1.54 1.60 1.62 1.68 1.70 1.69 1.69
0.58 0.60 0.56 0.53 0.58 0.56 0.49 0.67 0.67 0.69 0.76 0.79 0.83 0.93 0.98 1.00 0.98 1.01 1.01 1.00 1.02 1.06 1.01 1.01 1.02 1.01 1.01 1.02 1.07 1.10 1.11 1.13 1.09 1.09 1.09 1.07 1.05 1.05 1.06 1.05 1.04 1.03 0.99 0.94 0.94 0.95 0.93 0.94 0.91 0.94 0.97 0.97 1.04 1.06 1.07 1.04 1.06 1.06 1.09 1.11 1.14 1.14 1.13 1.12 1.10 1.08 1.07 1.07 1.10 1.15 1.18 1.19 1.25 1.33 1.41 1.47 1.53 1.57 1.59 1.60 1.60 1.61 1.64 1.69 1.69 1.70
0.49 0.63 0.53 0.55 0.54 0.52 0.54 0.65 0.67 0.70 0.72 0.78 0.81 0.83 0.86 0.91 0.96 0.96 0.97 1.03 1.07 1.01 0.99 0.97 0.95 0.93 0.90 0.90 1.00 1.02 1.08 1.09 1.05 1.04 1.03 1.02 1.01 1.04 1.06 1.07 1.07 1.06 1.08 1.10 1.07 1.04 0.98 0.95 0.93 0.93 0.94 0.95 1.02 1.04 1.06 1.05 1.04 1.08 1.11 1.15 1.19 1.19 1.16 1.11 1.09 1.05 1.04 1.04 1.09 1.11 1.14 1.16 1.24 1.32 1.41 1.51 1.56 1.56 1.58 1.61 1.64 1.60 1.58 1.63 1.71 1.73
0.58 0.60 0.48 0.55 0.50 0.54 0.60 0.66 0.67 0.68 0.66 0.69 0.78 0.83 0.86 0.88 0.90 0.92 0.95 0.96 1.01 0.97 0.96 0.97 0.96 0.90 0.88 0.84 0.90 0.97 1.00 1.06 1.06 1.05 1.03 1.02 1.03 0.99 1.02 1.06 1.08 1.07 1.07 1.05 1.05 1.03 0.98 0.99 0.98 0.99 0.98 0.99 1.03 1.04 1.03 1.04 1.06 1.07 1.08 1.12 1.19 1.23 1.18 1.14 1.15 1.14 1.10 1.09 1.08 1.09 1.15 1.18 1.25 1.30 1.34 1.39 1.45 1.51 1.56 1.57 1.58 1.65 1.71 1.78 1.83 1.86
0.52 0.46 0.55 0.52 0.46 0.45 0.49 0.57 0.63 0.54 0.54 0.62 0.70 0.76 0.81 0.85 0.88 0.88 0.90 0.90 0.92 0.94 0.95 0.96 0.94 0.95 0.94 0.89 0.88 0.91 0.94 1.02 1.06 1.07 1.03 1.04 1.03 1.04 1.02 1.05 1.06 1.04 1.03 1.04 1.04 1.01 1.00 1.01 1.01 1.00 1.00 1.03 1.09 1.09 1.08 1.08 1.09 1.09 1.08 1.11 1.18 1.24 1.19 1.18 1.20 1.19 1.18 1.19 1.17 1.16 1.20 1.25 1.29 1.31 1.33 1.33 1.34 1.37 1.42 1.52 1.59 1.66 1.67 1.70 1.79 1.84
0.46 0.49 0.50 0.45 0.45 0.44 0.55 0.62 0.67 0.65 0.63 0.66 0.68 0.74 0.80 0.83 0.84 0.84 0.84 0.85 0.87 0.92 0.97 0.96 0.92 0.92 0.90 0.90 0.92 0.92 0.92 0.98 1.02 1.08 1.03 1.03 1.05 1.07 1.08 1.08 1.06 1.03 1.02 1.03 0.99 0.98 1.00 1.00 1.01 1.01 1.00 1.05 1.10 1.11 1.12 1.13 1.14 1.12 1.11 1.14 1.19 1.24 1.25 1.23 1.21 1.23 1.26 1.29 1.30 1.31 1.31 1.32 1.31 1.34 1.34 1.35 1.34 1.34 1.34 1.39 1.52 1.62 1.68 1.70 1.75 1.82
Wind_Speed
23 23 24 24 23 24 25 24 23 22 21 20 19 20 19 18 17 17 18 18 17 18 19 19 18 17 19 18 17 19 20 19 19 19 17 16 16 16 16 16 16 16 16 15 16 17 18 19 19 20 21 22 22 22 23 23 23 23 24 24 24 24 24 24 23 23 22 21 20 19 18 18 17 16 15 15 14 13 13 12 12 11 10 10 10 9
24 25 26 25 23 22 23 24 24 23 23 22 20 20 19 18 18 17 18 17 17 17 19 20 19 18 20 19 18 20 20 20 21 20 18 18 17 17 17 17 16 16 15 15 16 16 18 19 20 20 21 22 23 23 24 24 24 24 24 25 25 25 25 24 24 23 22 22 21 20 19 18 17 16 16 15 15 14 13 13 12 11 11 11 10 9
26 27 26 24 22 22 22 24 25 25 25 24 22 21 20 19 17 18 18 16 16 17 18 20 20 19 20 21 19 20 21 21 22 22 20 19 18 17 18 18 17 16 15 16 16 16 17 18 19 20 21 23 23 24 25 25 24 24 24 25 25 25 25 24 24 23 22 22 21 20 19 18 18 17 16 15 15 15 14 13 13 11 11 11 10 10
26 25 24 24 23 23 23 24 26 26 25 25 24 23 22 21 18 18 19 16 16 17 17 19 20 19 19 20 20 21 22 22 23 24 22 20 19 18 19 19 18 18 17 17 17 16 17 18 19 20 21 22 23 24 26 26 25 24 25 25 26 26 25 25 24 24 23 22 21 20 19 19 18 17 17 16 16 15 14 14 13 12 11 11 10 10
27 21 21 25 26 24 24 24 25 26 26 27 27 25 23 22 21 20 18 15 15 16 18 19 19 19 21 21 21 21 22 22 23 23 22 21 20 19 20 20 19 19 18 18 18 17 17 17 19 20 21 22 24 25 26 27 25 25 25 26 26 26 25 25 25 25 23 22 22 20 19 19 18 18 17 17 16 15 15 14 13 13 12 12 11 10
28 22 21 25 27 27 25 25 26 26 25 27 29 28 25 24 22 21 19 15 15 15 17 21 19 18 22 23 22 21 22 23 23 23 22 21 20 20 20 20 20 20 20 19 19 19 18 18 18 20 21 23 24 25 26 27 26 25 25 26 26 26 25 25 25 25 24 23 22 22 21 20 19 19 18 18 17 16 15 14 14 13 13 13 11 11
28 26 24 24 26 28 27 26 26 26 25 26 28 28 27 26 24 23 20 17 17 15 16 23 22 17 21 23 22 22 23 25 24 23 23 23 21 20 20 20 20 20 20 20 20 19 18 18 19 19 21 23 24 25 27 27 27 26 26 26 26 26 26 25 25 25 25 24 23 23 22 21 20 19 18 18 17 16 15 14 14 14 13 13 12 11
28 28 28 26 26 27 28 27 26 26 25 24 24 26 28 28 26 25 22 19 18 15 14 22 24 19 20 24 23 24 25 25 25 24 23 23 23 22 22 21 21 21 21 21 21 20 19 19 19 19 20 22 24 25 27 27 27 27 27 26 27 27 26 26 26 26 25 24 23 23 22 22 21 20 18 18 17 17 16 15 15 14 13 13 13 12
27 29 30 29 27 27 28 27 25 26 26 22 21 24 27 28 27 25 24 22 20 18 16 21 23 20 20 24 24 24 26 26 27 26 24 24 24 24 23 23 23 22 21 21 22 21 20 19 19 20 20 22 24 25 27 28 28 27 27 27 27 27 27 27 26 26 26 25 24 23 23 22 21 20 19 18 18 18 17 16 15 15 14 13 13 12
26 29 29 29 29 28 27 26 25 26 26 22 21 22 24 27 27 25 24 24 21 20 20 21 22 21 20 22 25 25 26 26 26 25 23 24 26 25 24 24 24 23 22 22 22 22 21 20 20 20 21 22 24 25 27 28 28 28 28 28 28 27 27 27 27 27 26 25 24 24 23 22 21 20 19 19 18 18 17 16 16 15 15 14 13 13
28 27 28 30 30 27 26 25 26 26 24 22 22 23 23 24 25 24 24 24 22 21 23 23 23 22 20 21 25 26 25 25 24 23 23 24 25 25 25 25 25 24 22 22 22 22 22 21 20 20 21 22 23 25 26 27 28 28 28 28 28 28 27 28 28 28 27 26 25 24 24 23 22 21 20 20 19 18 18 17 16 16 15 15 14 13
32 29 28 29 30 28 26 26 26 26 25 23 23 24 23 22 22 22 23 24 23 21 23 24 23 23 22 21 24 26 25 25 23 23 23 23 24 26 26 26 26 25 24 23 23 22 22 20 19 20 22 23 23 25 26 27 28 29 29 29 29 28 28 28 28 28 27 26 25 25 24 23 22 21 21 20 20 19 18 18 17 16 16 16 15 14
34 34 30 27 29 30 29 27 26 26 26 25 24 25 24 22 21 22 22 23 22 21 22 23 22 22 23 23 23 25 25 24 24 23 23 23 23 25 26 26 26 26 25 24 23 22 22 21 20 21 22 23 24 25 27 28 28 29 29 30 30 29 29 28 28 28 28 27 26 25 25 24 23 22 21 21 20 20 19 18 17 16 16 16 15 15
31 33 34 32 29 30 31 29 27 27 28 27 27 27 25 22 22 22 22 21 21 22 23 23 21 21 21 22 23 25 25 24 23 25 26 25 24 24 25 26 26 26 26 24 23 23 23 22 21 21 22 23 24 26 27 28 29 29 29 30 30 30 29 29 29 29 28 28 27 26 25 24 23 23 22 21 21 20 19 19 18 17 16 16 15 15
30 30 34 35 31 29 31 31 28 27 28 28 27 27 26 24 23 21 20 20 20 20 21 22 21 21 20 20 21 23 24 24 24 25 27 27 26 25 25 25 25 26 26 25 24 24 24 23 22 22 22 23 25 27 27 28 29 29 29 30 31 30 30 30 29 29 29 29 28 27 26 25 24 23 23 22 21 21 20 19 19 18 17 16 16 15
32 31 30 32 32 29 30 29 28 27 27 28 26 26 28 27 23 20 19 20 19 18 20 22 21 20 19 19 19 21 22 24 24 23 26 28 27 26 25 25 25 25 26 25 25 25 24 24 23 23 23 24 25 27 28 28 28 29 29 30 31 31 31 30 30 29 29 29 28 28 27 26 25 24 23 22 21 21 21 20 19 19 18 17 17 16
29 31 28 28 32 33 31 28 29 30 27 26 28 29 28 26 24 21 18 18 18 18 20 23 22 19 18 18 19 20 21 23 24 22 24 28 28 27 26 26 26 25 26 26 26 25 25 24 24 24 24 24 25 27 28 29 29 29 29 30 30 31 31 31 31 30 30 29 29 28 27 27 26 25 24 23 22 22 21 21 20 19 18 18 17 17
25 29 30 29 32 34 33 29 29 31 28 26 29 29 24 23 24 23 19 17 18 19 19 21 23 21 19 20 21 22 22 23 24 24 24 27 28 28 28 27 27 26 26 27 27 26 25 25 24 24 25 25 25 26 27 29 29 29 29 30 30 31 31 31 31 30 30 29 29 28 28 27 26 26 25 24 23 22 22 21 20 20 19 18 18 17
25 28 31 32 32 32 33 31 29 32 32 29 28 27 24 24 25 25 22 19 19 19 18 19 22 23 22 22 21 24 26 25 25 25 25 27 27 28 28 28 28 28 27 26 26 26 25 25 24 25 26 26 25 26 27 28 28 29 30 30 30 30 30 30 30 30 30 29 29 28 28 28 27 26 25 24 23 23 22 22 21 20 19 18 18 17
26 26 28 31 30 28 30 33 32 33 34 31 27 27 28 26 25 25 23 20 18 18 18 17 18 21 23 23 22 26 28 28 27 26 26 27 28 28 29 28 29 28 27 27 26 26 26 25 25 26 26 26 26 26 26 26 27 29 30 30 30 30 30 30 30 30 29 29 29 29 29 28 28 27 26 25 24 23 23 22 21 20 20 19 18 18
26 26 27 30 28 25 28 34 36 35 33 33 31 30 30 26 25 25 23 22 19 16 16 16 17 19 21 20 22 25 26 26 28 27 26 28 28 29 29 28 28 29 28 28 27 26 26 26 26 27 27 27 26 26 26 26 27 28 29 29 30 30 30 30 30 29 29 29 29 29 29 29 28 27 26 25 24 24 23 22 22 21 20 19 19 18
25 26 28 30 28 28 29 31 35 35 33 33 32 31 31 27 25 25 23 24 23 18 16 16 15 17 17 16 19 22 21 22 25 24 24 27 29 29 29 28 28 28 28 28 28 27 27 25 26 27 27 27 26 26 27 26 27 27 28 29 29 30 30 30 30 29 29 29 29 30 30 29 28 27 27 26 25 24 23 22 22 21 21 20 19 19
25 27 28 30 30 31 32 29 30 34 33 32 31 30 30 28 27 26 24 24 24 22 18 15 14 15 15 14 16 19 20 22 23 22 22 25 28 29 29 27 27 28 28 28 28 27 26 25 26 27 27 27 26 26 27 27 26 27 28 28 29 29 30 29 29 29 29 29 29 29 29 29 28 28 27 27 26 25 24 23 22 22 21 21 20 20
23 25 26 27 28 31 33 30 28 31 33 33 31 31 31 30 29 27 24 23 23 22 20 16 14 15 14 13 14 18 20 22 23 22 22 24 27 28 28 27 26 27 28 28 28 27 26 25 25 26 27 27 26 26 27 27 26 26 27 28 28 29 29 29 29 29 29 29 29 29 29 29 29 28 28 27 26 26 25 24 23 23 22 22 21 21
23 24 24 24 25 27 29 28 25 27 32 33 32 33 33 33 30 26 23 23 22 24 23 18 16 17 14 11 12 16 20 22 21 21 21 24 25 25 25 27 28 26 26 28 28 27 26 25 26 26 27 26 26 26 27 27 27 26 26 27 28 28 28 28 28 28 29 29 28 28 29 29 29 28 28 27 27 26 25 25 24 24 23 23 22 21
24 25 26 26 26 26 27 26 24 23 26 31 34 36 35 34 33 28 24 24 23 24 24 22 19 19 15 11 11 13 19 21 20 19 20 22 25 24 23 26 28 26 26 28 28 27 27 26 26 27 26 26 26 26 26 27 27 26 26 26 27 27 28 27 27 28 28 28 28 28 28 28 28 28 28 27 27 26 26 25 25 24 24 23 23 22
25 26 28 30 30 29 27 26 25 21 22 28 34 38 37 34 34 30 25 25 24 23 23 24 23 20 17 12 9 10 15 18 18 18 18 19 22 23 24 25 27 25 25 27 27 27 28 27 27 27 27 26 26 26 26 27 27 27 26 26 27 27 27 27 27 27 27 27 27 27 28 28 27 27 27 27 27 26 26 25 25 25 24 23 23 22
25 25 26 30 31 31 29 29 27 25 25 27 31 36 37 35 34 32 29 27 24 22 22 23 23 23 19 14 11 12 15 16 17 18 18 18 20 22 23 25 26 26 26 27 27 27 28 28 28 27 27 26 27 27 26 26 27 27 26 26 27 27 27 26 26 26 26 26 26 26 26 27 26 26 26 26 26 26 26 26 25 25 24 23 23 23
25 25 26 27 28 30 30 30 28 27 28 28 30 36 38 36 36 34 31 28 24 23 23 22 22 23 21 16 15 15 15 15 17 18 17 18 20 21 23 26 26 25 26 27 27 27 28 28 28 27 27 27 27 26 26 25 26 27 27 26 26 26 26 26 26 26 26 26 26 26 26 26 25 25 24 24 25 25 26 26 25 25 24 24 24 23
25 25 25 24 25 28 29 26 25 25 25 25 29 36 37 36 37 34 30 28 26 24 23 21 21 22 21 18 17 16 15 14 15 16 17 18 20 21 23 26 26 25 26 28 27 26 27 28 27 26 26 27 27 27 26 25 26 27 27 26 26 26 26 26 26 26 26 26 26 25 25 25 24 24 24 24 25 25 25 26 25 25 25 25 24 24
24 24 23 22 24 27 26 22 21 21 21 22 26 33 36 35 35 34 30 28 26 23 22 20 20 21 20 19 17 15 14 15 15 16 17 18 19 20 22 25 26 25 26 28 27 26 26 27 26 26 26 27 27 27 26 25 26 26 27 26 26 26 26 26 26 26 26 26 25 25 25 25 24 24 24 24 24 25 25 25 26 25 25 25 25 24
25 24 23 22 23 26 24 20 19 19 20 19 19 24 32 33 32 33 29 25 24 23 21 20 19 20 21 20 18 15 15 15 15 16 16 17 18 19 22 24 26 26 26 27 27 25 26 26 26 26 26 27 27 27 26 26 26 26 26 26 26 26 25 25 25 25 25 25 25 25 25 25 24 24 24 24 24 24 25 25 25 26 25 25 25 25
26 24 23 22 22 25 23 19 19 18 18 20 17 18 24 27 27 28 26 22 21 21 20 21 21 20 21 21 18 16 15 15 15 16 16 16 17 18 21 24 25 25 25 26 26 26 26 26 26 26 26 26 26 26 26 26 26 26 26 27 27 26 26 25 25 25 25 26 26 25 25 25 24 24 23 23 24 24 24 25 26 26 26 25 25 25
27 25 24 23 23 24 22 19 19 18 18 21 20 17 19 21 23 25 23 19 19 19 18 20 20 19 21 21 19 19 17 16 15 14 14 15 16 17 19 20 21 22 23 24 24 24 25 24 24 24 25 25 25 25 26 27 27 26 26 26 27 27 27 26 26 26 26 26 26 26 25 25 25 24 24 23 23 24 24 25 26 26 26 25 25 25
27 25 25 25 25 24 22 21 21 19 19 21 20 18 19 21 22 23 21 18 18 17 15 17 18 19 21 22 21 21 19 17 14 12 12 13 15 17 17 17 19 21 22 22 22 22 22 22 22 23 23 24 24 24 25 26 27 26 26 26 27 27 27 27 27 26 26 26 26 26 26 26 26 25 25 24 24 24 24 25 25 26 26 26 25 25
27 26 25 25 25 25 23 22 23 22 20 19 18 18 19 19 19 20 20 18 17 16 15 16 18 20 21 22 23 23 21 18 15 12 11 12 14 16 17 17 18 20 20 21 21 21 20 20 20 21 22 23 23 23 25 26 27 27 27 27 28 28 28 28 27 27 26 26 26 26 26 26 26 26 26 25 25 25 24 25 25 25 26 26 26 26
28 26 25 25 26 25 23 22 23 22 19 17 17 17 18 19 20 21 21 19 18 17 16 17 19 20 21 21 23 24 22 19 16 14 12 13 15 16 17 18 18 19 19 19 19 19 18 18 18 19 20 20 21 21 23 25 27 28 28 28 28 28 29 28 28 27 27 26 26 26 26 26 26 27 27 26 26 26 25 25 25 25 26 26 26 26
28 27 26 26 26 24 22 22 22 20 19 18 17 17 20 22 23 24 23 20 19 18 17 18 19 20 21 20 22 24 22 19 18 17 14 14 16 17 18 18 18 18 18 18 17 17 17 17 17 17 17 17 17 18 19 21 24 26 27 27 28 28 28 28 28 27 27 26 26 26 26 26 26 26 26 27 26 26 26 26 26 26 26 26 26 27
28 28 26 26 27 25 24 23 23 22 20 17 16 17 18 20 24 27 24 19 18 18 18 19 20 21 21 20 21 23 23 21 21 19 16 16 16 17 18 18 17 17 17 16 16 16 17 17 15 14 14 14 15 15 16 17 19 21 23 24 25 27 27 27 27 27 27 26 26 26 27 27 27 26 26 26 26 26 26 27 27 27 27 27 27 27
25 26 26 26 27 27 25 24 24 23 19 16 16 17 16 18 24 27 23 18 18 19 19 21 22 22 22 21 21 23 23 23 23 20 18 17 17 17 17 17 16 16 16 15 15 14 15 15 14 13 13 13 13 14 15 16 17 17 18 20 22 24 25 26 26 26 26 26 25 25 26 27 27 26 26 25 25 24 25 25 27 28 28 28 28 27
22 24 25 26 27 27 26 25 25 23 19 16 17 17 17 19 23 23 21 20 20 20 21 22 23 24 23 22 22 23 23 22 22 20 18 18 17 16 16 16 16 16 15 15 14 13 13 14 13 12 12 12 12 13 14 15 16 16 17 18 18 20 21 23 24 25 25 25 24 24 25 26 26 26 26 25 24 24 24 24 25 26 28 28 29 28
20 23 23 24 26 26 25 25 25 24 19 15 15 16 18 20 21 20 21 22 20 21 22 23 23 24 24 23 23 23 22 21 20 19 18 17 17 16 16 16 16 15 15 14 13 12 13 13 13 12 11 11 11 12 13 15 15 16 16 17 17 18 20 21 22 23 24 24 24 24 24 25 26 26 26 25 24 24 24 23 24 25 26 27 28 29
17 21 23 23 24 25 24 24 25 24 19 15 15 16 19 21 21 21 23 22 19 21 23 23 22 23 23 24 23 22 21 20 19 18 18 18 17 17 16 16 16 15 15 14 14 13 14 14 14 13 12 12 12 13 13 14 15 16 17 17 18 19 19 20 20 22 23 24 24 24 24 24 25 25 25 25 25 25 24 24 24 24 25 26 27 28
14 18 22 23 23 23 23 23 24 25 22 16 15 18 20 22 21 22 23 21 19 20 23 22 22 21 22 24 23 22 21 19 19 19 19 18 18 18 17 17 16 16 15 15 15 15 15 15 15 14 13 13 13 14 14 14 15 16 17 18 18 19 19 20 20 21 22 23 24 24 24 24 25 25 25 24 24 25 25 24 24 24 24 25 26 26
12 15 21 24 23 23 24 24 24 25 24 19 16 17 19 21 22 21 22 20 18 20 22 22 21 21 21 22 22 22 21 20 19 19 19 19 19 19 19 18 18 17 16 16 16 15 15 15 15 14 14 14 14 14 15 15 16 16 17 17 18 18 19 19 20 20 21 22 23 24 24 25 25 24 24 24 24 24 24 24 24 24 24 24 25 25
13 14 18 22 23 24 25 24 22 23 24 22 19 17 19 21 22 22 22 19 16 19 22 22 20 20 20 20 21 21 21 20 20 19 19 19 19 19 20 20 19 18 18 17 17 16 15 15 15 15 15 15 15 15 15 15 16 16 17 17 17 17 18 18 19 20 21 21 22 23 24 24 25 24 24 24 24 24 24 24 24 25 25 25 25 25
14 14 16 18 21 23 25 24 22 22 24 24 21 17 18 20 21 22 22 19 16 18 22 22 20 20 19 20 21 21 21 20 20 20 19 19 19 19 19 20 20 19 18 18 18 17 16 16 16 16 16 16 16 16 16 16 16 16 17 17 18 18 18 18 19 20 20 21 21 22 23 24 24 25 24 24 24 24 24 24 24 24 24 25 25 25
14 13 15 17 20 24 26 24 21 23 26 27 23 20 19 20 21 21 22 20 18 18 20 21 21 20 20 20 21 21 20 20 20 20 20 19 19 18 18 19 19 19 19 19 18 18 17 17 16 16 17 17 17 17 17 17 17 17 18 18 18 19 19 19 19 20 20 21 21 22 22 23 24 24 24 24 24 24 24 24 24 24 24 24 25 26
14 14 15 16 20 24 26 24 21 24 28 28 25 22 20 20 21 21 22 21 20 19 19 19 20 21 21 21 21 21 20 20 20 21 21 20 19 18 18 18 18 18 18 18 18 18 18 17 17 17 18 18 18 18 17 17 18 18 19 19 19 19 20 21 21 20 21 21 22 22 22 22 23 24 24 24 23 23 23 23 23 23 23 24 24 25
14 15 15 16 19 23 25 24 24 27 30 30 28 25 22 21 22 23 23 23 22 22 21 20 19 20 20 21 21 20 20 20 20 20 21 20 19 19 18 18 18 18 18 18 18 18 18 18 18 18 18 18 18 18 18 18 18 19 19 19 20 19 20 21 21 21 21 21 21 22 22 22 22 23 24 24 24 23 22 22 22 22 23 23 23 23
13 16 17 17 20 23 24 25 27 30 32 33 31 29 26 24 23 23 24 25 25 25 24 22 20 20 20 20 20 20 20 20 20 20 21 21 20 19 19 19 19 19 19 18 18 18 18 18 18 18 18 19 19 19 19 19 19 19 20 20 20 20 20 21 21 21 21 21 21 21 21 21 21 22 22 23 24 23 23 22 21 21 22 23 23 23
Wind_Direction
213 217 220 220 220 219 218 218 220 221 221 221 219 220 223 225 227 221 217 215 208 210 214 212 213 209 204 203 200 198 197 197 196 196 197 196 195 195 195 197 197 199 202 201 198 196 196 197 195 194 193 194 193 193 193 193 193 192 191 191 191 190 189 189 189 189 190 190 190 190 189 189 188 186 183 182 183 184 183 181 177 174 172 171 171 171
217 222 223 220 220 220 219 218 219 221 222 222 220 221 223 223 224 221 217 214 209 214 218 213 213 211 206 207 203 198 199 200 198 197 198 197 199 200 199 199 198 198 199 200 199 198 197 197 197 196 195 194 194 193 193 193 194 194 192 192 192 191 190 190 190 191 191 192 191 190 190 190 190 188 186 185 185 187 186 184 181 177 174 172 172 172
221 226 225 219 218 220 220 218 218 220 222 222 221 221 223 222 223 227 223 218 213 216 218 214 214 214 210 208 205 201 202 202 201 200 200 200 201 203 202 201 200 198 198 199 199 198 198 197 197 198 197 196 195 195 194 193 193 194 194 193 193 192 192 191 191 191 192 193 193 192 192 191 191 191 189 188 187 188 187 187 185 181 176 174 174 174
222 227 223 217 217 219 220 218 217 219 220 221 220 220 222 222 223 226 220 217 218 217 217 216 215 215 211 208 206 204 205 205 205 204 205 204 204 204 203 203 202 201 201 201 200 199 199 198 199 199 198 197 196 195 194 193 193 194 194 194 194 193 193 192 191 192 193 193 193 193 193 193 193 192 191 191 190 189 189 189 188 186 181 178 178 178
225 225 217 216 218 218 219 219 216 218 220 221 221 220 221 221 220 220 217 219 226 224 218 212 211 214 209 205 208 209 209 209 208 207 209 210 208 205 204 204 205 204 204 203 202 201 201 200 200 200 199 197 196 196 195 194 194 195 195 194 194 194 194 193 192 192 193 193 193 193 193 192 192 192 192 192 192 191 190 191 191 190 187 184 183 181
226 222 213 215 218 218 219 220 217 217 220 221 222 220 219 220 220 221 222 225 229 233 223 206 204 215 211 206 210 212 211 210 208 209 211 212 210 206 205 206 208 208 206 205 204 204 203 203 201 201 200 199 198 197 196 195 195 195 195 195 195 195 195 194 193 193 194 194 193 193 192 191 192 193 193 194 194 193 193 192 193 193 192 190 188 186
225 221 218 218 217 217 219 221 218 216 219 222 221 218 218 220 222 224 225 224 225 233 224 207 205 214 213 212 213 211 210 209 209 211 212 212 211 209 207 207 208 208 207 207 206 206 206 205 202 201 201 200 199 197 196 196 196 196 196 195 195 195 196 196 194 194 195 195 195 195 195 194 195 196 196 196 195 195 195 194 195 196 195 194 192 190
221 219 221 220 218 218 219 220 218 215 218 223 218 216 218 221 222 225 227 225 225 232 227 213 211 214 215 217 215 211 210 211 211 213 214 213 213 211 211 209 207 206 205 205 206 205 206 206 204 202 201 201 199 197 196 195 196 196 196 196 196 196 197 197 196 195 196 196 196 197 197 198 199 198 197 197 196 197 198 197 197 199 199 196 194 194
219 219 220 220 221 221 220 219 216 215 220 221 214 215 219 221 223 224 226 226 226 231 232 221 216 221 224 220 217 213 211 212 213 214 216 216 215 213 212 210 208 207 206 205 204 204 205 206 205 203 201 200 198 197 196 195 196 197 197 196 197 197 197 198 198 197 197 198 198 198 199 200 200 200 199 198 198 199 200 200 200 201 202 200 198 198
220 220 219 220 223 223 221 220 216 216 220 218 215 216 217 220 222 222 224 226 225 228 230 224 218 223 229 221 215 213 211 214 216 217 218 217 214 214 212 210 210 209 208 207 205 205 206 206 205 203 201 200 198 197 197 196 196 197 197 197 197 198 198 199 200 199 198 199 199 200 201 201 201 201 200 200 200 200 200 201 201 202 203 203 203 203
224 222 219 221 223 221 220 219 217 217 218 215 215 217 217 218 220 221 223 222 224 227 227 225 220 222 229 224 215 213 213 214 217 220 220 217 214 214 213 212 211 209 208 209 207 206 206 206 205 203 201 199 198 197 196 196 197 197 198 198 198 199 199 200 201 201 200 200 201 201 202 202 202 201 201 201 201 201 200 201 201 202 204 205 207 208
224 222 221 221 221 218 217 218 217 216 215 213 212 213 215 219 220 221 220 218 222 227 224 223 221 221 226 225 218 217 218 217 217 218 217 215 213 214 214 212 211 210 209 209 208 207 205 206 206 204 203 201 199 197 196 196 196 197 199 199 199 200 200 201 201 202 202 202 201 202 203 204 203 203 203 202 203 202 201 201 202 202 204 207 210 210
223 222 222 221 219 217 216 217 216 214 212 212 210 208 210 213 216 217 215 216 220 224 222 219 220 224 227 226 221 219 220 220 220 219 216 213 211 211 213 213 212 211 210 210 209 207 205 207 207 205 204 202 200 199 197 196 196 197 199 200 200 201 201 201 202 203 203 203 203 203 204 205 205 205 205 204 204 204 203 203 203 203 204 207 210 211
223 222 221 220 219 216 215 215 213 212 211 210 210 208 207 208 212 215 216 218 219 221 222 218 220 228 230 228 223 220 222 222 221 220 217 214 210 210 213 213 213 212 211 211 210 207 207 208 208 206 204 204 202 200 198 197 197 198 199 200 201 202 202 202 203 203 204 204 204 204 204 205 206 206 206 206 205 205 205 205 206 207 206 207 210 213
222 221 218 218 218 214 214 215 212 210 211 212 210 208 210 211 211 215 217 217 220 222 221 219 223 227 226 225 221 219 222 223 222 220 216 216 213 209 210 211 211 212 211 211 210 209 209 208 207 207 205 205 203 201 199 198 198 199 200 201 202 202 203 203 204 204 204 205 205 206 206 206 207 207 208 208 207 206 207 208 208 210 210 210 211 214
223 223 218 217 218 213 214 214 210 209 211 213 210 209 213 213 211 216 220 218 218 221 221 220 224 228 226 229 225 220 220 221 222 219 214 216 215 211 210 209 209 210 209 210 210 209 209 208 208 208 207 206 204 202 201 200 200 201 202 203 203 203 203 204 204 205 205 206 206 207 207 207 207 208 209 209 208 208 208 210 211 212 213 214 214 214
224 223 217 216 217 215 214 213 209 209 210 210 210 212 214 211 210 217 224 224 218 221 226 223 226 231 230 230 227 222 221 220 221 218 213 215 214 211 210 209 209 210 210 210 211 210 209 208 209 208 207 207 205 203 204 203 203 203 203 204 204 204 204 205 206 206 206 206 207 208 208 208 208 208 209 209 209 209 210 212 213 214 215 216 216 216
224 223 218 216 216 215 213 213 212 211 208 208 211 212 209 209 214 216 220 224 219 223 230 226 226 228 227 228 227 222 221 222 222 220 217 215 213 212 212 210 209 209 210 212 211 211 209 208 209 208 207 207 206 205 205 206 205 204 204 204 204 204 205 206 207 207 207 207 207 208 209 209 209 209 210 210 210 210 210 212 214 215 216 216 217 218
224 223 217 214 214 213 210 211 215 213 209 210 212 209 205 208 213 213 215 219 217 221 229 230 228 228 226 228 227 224 224 225 224 221 220 217 215 214 212 210 210 208 209 210 210 210 208 208 209 208 207 207 206 206 205 205 205 204 205 205 204 205 205 206 207 207 207 208 208 209 209 209 210 210 211 211 210 210 211 212 214 216 217 217 218 219
221 219 216 212 212 213 209 208 212 211 209 209 210 209 208 211 211 211 214 216 215 220 225 227 229 229 229 228 228 229 228 228 227 224 221 219 216 214 212 210 210 209 209 210 209 208 208 209 209 208 207 207 207 206 205 205 205 204 204 204 204 205 205 206 207 207 208 208 209 210 210 210 210 211 211 212 211 211 212 213 214 216 218 218 219 220
219 217 217 212 211 214 210 208 210 209 207 206 207 207 207 209 209 210 216 215 212 217 220 221 228 232 232 228 228 229 228 227 227 224 221 218 214 213 211 208 208 208 208 208 208 208 208 209 209 208 208 208 207 206 204 204 204 203 203 204 204 204 205 206 206 207 207 208 209 210 210 211 211 211 212 213 213 213 213 214 215 216 217 218 219 220
220 220 218 213 213 215 213 211 210 210 209 208 208 208 207 206 204 207 215 216 212 215 215 215 226 233 231 224 223 225 223 223 222 217 215 214 212 211 210 206 205 205 206 206 207 208 208 209 209 207 207 207 207 205 203 203 204 203 202 203 204 204 205 206 206 206 207 208 209 210 211 211 211 212 213 214 215 215 215 215 216 216 217 219 221 221
224 221 217 215 215 216 216 215 212 211 212 211 211 211 209 208 206 206 213 213 212 217 218 216 224 231 226 217 219 224 222 219 216 213 210 210 209 209 208 205 202 203 204 204 205 207 207 208 207 205 204 205 205 204 203 203 203 202 202 202 203 204 205 206 206 207 207 207 209 210 211 211 212 213 214 215 216 216 216 217 217 217 219 220 222 223
221 215 215 217 217 217 217 216 214 212 211 212 212 210 210 210 209 210 213 212 212 216 217 217 224 227 222 216 221 225 222 217 214 210 207 206 207 207 206 203 201 201 203 202 203 205 205 205 204 202 203 203 203 203 202 203 203 202 202 202 203 204 205 205 206 207 207 208 209 210 211 212 213 214 215 216 217 217 217 218 218 219 220 222 223 225
216 213 215 215 212 211 211 211 212 211 209 210 211 209 210 210 209 210 212 212 214 215 212 212 220 223 221 227 235 228 219 215 211 204 200 202 204 204 203 201 199 200 201 200 201 202 201 200 200 200 201 201 201 201 202 202 202 201 201 202 202 203 204 204 205 206 207 208 210 211 212 213 214 215 215 216 217 217 218 219 220 221 222 223 224 225
215 215 213 209 206 204 203 203 204 205 208 210 209 208 209 208 207 208 208 209 213 214 211 211 217 222 225 241 250 225 209 207 202 195 195 197 199 199 199 198 198 198 198 197 198 199 199 199 198 199 200 201 200 201 201 201 200 200 201 201 201 202 203 203 204 205 206 208 209 211 212 213 214 215 216 216 217 218 219 220 221 222 223 224 224 225
213 213 210 208 210 210 211 211 210 211 215 214 210 207 207 207 206 207 207 209 210 209 211 214 217 221 227 238 243 213 195 194 193 189 191 195 197 197 196 195 197 197 196 195 195 197 198 199 200 201 201 201 200 200 201 201 201 200 200 201 201 202 202 202 203 204 205 207 208 210 212 213 214 215 216 217 218 219 220 221 222 223 224 224 225 225
211 212 210 210 214 216 218 220 220 220 221 220 214 208 205 205 205 206 209 210 207 206 211 217 216 217 222 227 222 203 189 186 189 190 192 193 196 197 195 194 195 195 195 194 194 196 199 201 202 201 200 200 199 199 200 201 202 202 201 201 201 202 202 202 203 204 205 206 207 209 212 213 214 215 216 218 219 220 221 222 222 223 224 225 225 225
210 211 211 213 220 219 216 217 219 219 219 221 217 208 203 204 204 206 209 208 205 206 211 216 215 213 215 217 213 205 195 192 193 194 194 193 194 195 194 193 194 194 193 193 194 196 199 200 200 199 198 198 197 196 198 200 201 201 201 201 202 202 202 202 203 205 205 206 208 210 212 213 214 215 217 218 219 220 221 222 222 223 224 224 225 226
208 210 211 216 220 216 212 213 214 214 217 221 214 203 200 204 205 205 208 207 207 210 211 211 212 212 213 212 210 207 202 200 197 193 193 194 193 193 193 193 192 192 192 192 193 195 197 197 197 197 196 196 196 196 197 199 200 200 201 201 202 202 202 202 203 205 206 207 209 211 212 213 215 216 217 218 220 221 222 222 223 223 223 224 225 226
207 210 212 214 213 208 207 209 208 210 217 215 206 200 199 203 205 205 207 208 209 212 210 206 208 213 214 211 210 208 202 199 200 195 193 196 195 191 191 192 190 189 191 192 193 193 194 194 194 195 195 196 196 197 199 200 200 201 202 202 203 202 201 202 204 205 207 209 210 211 212 213 215 217 218 220 221 221 222 223 223 223 224 224 226 227
208 211 210 208 207 204 202 207 212 217 213 200 195 202 204 203 204 205 205 207 210 212 208 204 206 211 211 207 206 206 201 198 201 199 196 197 196 190 189 189 188 187 189 191 192 192 192 193 194 194 195 196 197 198 200 202 202 202 203 204 204 204 203 203 204 206 208 210 211 212 213 214 215 217 219 220 221 222 223 223 224 224 224 225 226 227
207 210 207 203 205 204 203 207 212 212 203 192 193 206 209 205 201 200 202 207 211 210 206 207 209 208 206 203 199 198 198 197 200 201 196 193 191 187 185 185 186 187 188 188 190 190 191 194 196 196 196 197 198 200 201 202 203 203 204 205 206 206 205 205 206 207 209 211 213 214 214 215 216 218 219 221 222 223 223 223 224 224 224 225 226 227
207 209 206 201 201 206 208 208 204 198 192 191 193 197 200 196 187 186 192 200 206 209 211 210 207 204 203 199 192 190 191 191 191 191 188 186 183 179 179 182 184 185 186 186 188 189 191 193 195 196 197 198 200 202 203 203 204 204 205 206 206 207 207 207 207 209 211 212 214 215 216 217 218 219 220 221 222 223 223 224 224 224 225 226 226 227
208 207 205 201 200 205 206 200 194 191 190 191 190 186 186 186 181 180 183 193 202 210 213 206 198 196 196 191 187 186 183 177 172 170 173 175 171 168 171 175 179 181 183 185 186 187 190 192 193 195 197 199 202 203 204 205 206 207 208 208 207 207 208 208 209 210 212 213 215 216 218 219 219 220 221 222 222 223 224 224 225 225 225 226 226 227
207 205 204 201 198 199 200 197 193 192 194 194 190 185 185 189 191 186 181 188 198 200 199 195 188 186 187 185 184 182 176 169 164 162 165 165 161 160 162 164 168 173 178 181 183 185 188 190 192 194 197 200 204 205 206 208 209 209 210 210 210 209 210 210 211 212 213 214 216 217 218 220 221 222 222 223 224 224 225 224 225 226 226 226 227 228
204 201 201 200 195 194 199 201 197 194 194 193 190 193 195 194 196 191 183 184 192 193 190 188 183 181 183 184 185 180 172 168 172 173 169 165 161 158 156 157 160 164 168 172 175 178 182 184 187 191 194 197 202 206 210 211 211 211 211 211 211 211 212 213 214 215 216 217 218 219 220 220 221 222 224 225 225 226 226 226 226 226 226 227 228 228
201 198 197 197 196 197 198 197 195 193 191 192 197 205 204 197 195 192 183 180 187 192 189 185 181 180 179 183 189 186 176 173 180 181 177 170 164 159 157 156 157 160 162 165 168 171 175 178 181 185 188 191 197 203 208 210 210 211 211 212 212 213 214 215 216 218 219 220 220 221 222 222 222 222 224 225 227 228 228 227 227 227 227 228 229 230
200 197 196 197 199 201 199 195 193 191 188 194 202 204 203 201 197 190 181 178 188 192 188 182 180 178 176 180 189 190 182 179 182 184 182 176 167 162 161 160 160 161 161 163 166 169 173 175 178 182 185 189 195 201 203 204 206 208 210 213 215 215 216 217 218 220 221 222 223 223 223 223 222 223 224 226 227 229 229 229 229 228 229 229 230 231
199 195 194 196 199 201 200 197 194 191 192 200 204 202 206 206 195 185 179 182 191 192 189 186 183 179 178 181 186 187 186 184 184 185 184 178 171 168 167 166 167 169 168 167 169 172 174 176 180 184 188 194 199 204 205 205 206 207 211 214 217 218 220 221 221 222 222 223 224 224 224 224 223 224 225 226 228 229 230 231 231 230 230 230 231 233
197 194 193 196 198 200 201 199 195 192 194 201 204 209 211 200 186 179 179 184 190 191 189 188 186 184 184 185 188 190 189 187 185 185 184 180 176 176 175 174 175 175 175 175 177 177 179 182 185 189 194 201 205 209 211 210 211 213 215 216 218 221 224 224 224 224 224 224 224 224 224 224 224 225 227 228 229 230 230 231 231 231 231 231 232 233
195 195 193 194 197 198 199 198 194 192 196 203 207 209 203 187 178 179 182 183 186 188 186 185 187 187 186 187 189 189 188 186 185 185 185 185 183 183 183 183 181 181 182 183 185 186 187 190 194 197 202 208 213 215 217 216 217 219 220 221 223 226 227 228 228 228 227 227 227 226 226 226 226 227 228 230 231 231 232 232 232 232 232 232 232 232
191 196 195 193 194 196 196 194 192 194 200 207 202 193 185 178 176 182 184 181 181 184 184 183 184 186 186 186 186 185 183 184 187 187 188 189 188 187 187 186 186 186 187 188 191 194 195 197 201 204 208 214 217 220 221 222 223 225 226 227 229 229 229 230 231 230 230 230 229 229 229 228 228 229 229 230 231 232 232 233 232 232 232 231 231 232
184 194 196 194 193 195 196 194 192 194 198 198 188 183 181 178 175 179 182 180 180 183 184 182 182 184 184 185 186 185 183 185 189 191 192 192 193 193 192 192 193 193 193 193 195 197 199 202 205 209 213 217 221 223 225 228 229 230 231 231 232 231 230 231 231 230 230 230 230 230 230 230 230 230 230 231 231 231 232 232 231 231 230 230 230 232
184 192 196 195 195 196 197 196 195 196 196 191 184 182 183 180 175 175 179 181 181 182 183 183 184 184 185 187 189 190 190 191 194 196 197 197 197 198 198 199 200 201 202 203 204 205 207 210 213 217 220 223 226 227 229 231 232 232 234 234 233 232 231 232 232 231 230 230 230 230 229 229 229 230 231 231 231 230 230 231 231 230 230 229 230 232
193 193 194 195 197 197 197 196 197 198 195 190 187 184 182 182 181 179 179 183 185 182 181 182 184 185 187 190 193 195 196 198 199 199 201 202 202 203 205 207 208 210 213 214 215 216 218 220 223 225 227 229 231 231 232 232 232 232 234 235 234 233 233 233 233 233 232 231 230 229 229 229 229 230 230 231 231 231 231 231 231 232 231 231 231 232
198 192 192 196 198 198 197 196 199 200 195 191 191 190 186 187 188 186 185 189 189 182 179 181 185 187 188 191 195 197 199 200 202 203 204 205 207 208 209 211 213 217 220 221 223 225 226 228 231 232 232 232 234 234 234 234 234 234 235 235 236 236 236 235 235 235 233 231 230 229 228 229 230 231 231 231 231 231 232 232 233 234 233 233 233 234
205 196 196 203 204 201 199 200 205 206 200 196 195 194 193 193 195 195 196 197 194 187 184 185 188 191 192 193 195 199 201 203 205 206 206 207 209 211 212 213 216 220 223 225 228 231 233 235 237 236 234 234 236 237 238 238 238 238 238 238 239 239 239 238 238 237 235 232 230 229 228 228 229 231 232 232 232 233 234 235 236 237 236 236 235 236
212 206 205 211 211 205 202 205 212 211 206 204 205 203 201 201 202 202 204 204 202 197 193 191 191 193 195 195 196 200 203 205 207 208 209 210 211 214 217 218 218 221 225 228 231 235 237 239 239 238 237 237 238 240 241 241 241 241 241 241 241 241 241 240 239 239 237 233 231 230 229 228 228 229 230 231 233 234 236 238 239 240 240 240 240 240
213 213 215 216 213 209 206 209 214 212 210 213 217 216 212 211 210 209 210 211 210 206 202 199 198 196 195 196 197 198 201 205 207 209 211 212 214 217 219 219 219 222 227 231 234 236 238 239 239 239 239 239 240 242 243 243 244 244 243 242 242 242 242 241 240 238 237 235 232 230 229 228 228 229 230 230 232 234 236 239 241 242 243 243 244 245
216 219 222 220 218 217 216 216 217 216 216 219 222 223 221 218 216 217 216 214 214 212 208 206 205 203 202 204 203 201 203 207 209 211 213 215 217 218 220 220 222 225 229 232 234 237 239 239 239 239 239 239 240 242 244 245 246 246 245 242 241 242 242 241 240 237 236 234 231 229 228 227 228 228 230 231 232 233 235 238 241 243 245 246 246 246